Regional Weather Roundup
Issued by NWS Kansas City/Pleasant Hill, MO

Home | Current Version | Previous Version | Graphics & Text | Print | Product List | Glossary Off
Versions: 1 2 3 4 5 6 7 8 9 10 11 12 13 14 15 16 17 18 19 20 21 22 23 24 25 26

000
ASUS43 KEAX 260010
RWREAX

WEATHER ROUNDUP FOR EASTERN KANSAS AND NORTHWEST MISSOURI
NATIONAL WEATHER SERVICE KANSAS CITY/PLEASANT HILL MO
700 PM CDT WED MAY 25 2016

KSZ040-057-103>105-MOZ028-029-037-043-260100-
...KANSAS CITY METROPOLITAN AREA...

CITY           SKY/WX    TMP DP  RH WIND       PRES   REMARKS
K.C. INTL      MOSUNNY   80  67  64 S12       29.85S
6HR MIN TEMP:  72; 6HR MAX TEMP:  82;

K.C. DOWNTOWN  MOSUNNY   82  66  58 S14G22    29.84S
6HR MIN TEMP:  76; 6HR MAX TEMP:  84; 6HR PCP: TRACE;

LEES SUMMIT    SUNNY     81  66  60 S18G24    29.86F
6HR MIN TEMP:  75; 6HR MAX TEMP:  84;

OLATHE - IXD   MOSUNNY   80  68  66 S9        29.86F
6HR MIN TEMP:  75; 6HR MAX TEMP:  82;

OLATHE - OJC   MOSUNNY   78  67  68 S9        29.86F
6HR MIN TEMP:  73; 6HR MAX TEMP:  80;

LAWRENCE       PTSUNNY   81  68  64 S13       29.83F

$$

MOZ001>008-011>017-020>025-030>033-038>040-044>046-053-054-260100-
...NORTHERN AND CENTRAL MISSOURI...

CITY           SKY/WX    TMP DP  RH WIND       PRES   REMARKS
ST. JOSEPH     CLOUDY    81  67  62 S12       29.83F
6HR MIN TEMP:  73; 6HR MAX TEMP:  82;

MOSBY          PTCLDY    82  63  51 S7        29.85S
WARRENSBURG    SUNNY     81  64  57 S8        29.87S
WHITEMAN AFB   MOSUNNY   81  67  61 S9        29.87S
6HR MIN TEMP:  76; 6HR MAX TEMP:  83;

CLINTON        PTSUNNY   82  68  61 S8        29.89S
SEDALIA        SUNNY     81  65  58 S13       29.90S
6HR MIN TEMP:  79; 6HR MAX TEMP:  84;

WARSAW         NOT AVBL
CHILLICOTHE      N/A     82  64  54 S12       29.87R
6HR MIN TEMP:  79; 6HR MAX TEMP:  85;

KIRKSVILLE     SUNNY     81  63  54 S7        29.89R
6HR MIN TEMP:  76; 6HR MAX TEMP:  83;


$$

MOZ041-047>049-056>058-063>065-088>090-097-260100-
...EASTERN AND SOUTHERN MISSOURI...

CITY           SKY/WX    TMP DP  RH WIND       PRES   REMARKS
ST. LOUIS INTL MOSUNNY   82  64  54 SW14      29.93S
6HR MIN TEMP:  76; 6HR MAX TEMP:  84;

SPIRIT OF STL  SUNNY     81  64  56 S6        29.91S
COLUMBIA       SUNNY     81  63  54 S12       29.91R
JEFFERSON CITY SUNNY     82  63  52 S10       29.90S
ROLLA          SUNNY     78  63  59 S10       29.93F
SPRINGFIELD    SUNNY     78  65  63 S16       29.93S
BRANSON        MOSUNNY   77  68  73 S6        29.98S
JOPLIN         PTSUNNY   79  71  76 S9        29.90F
WEST PLAINS    SUNNY     76  64  66 S10       30.01S

$$

IAZ060-094-KSZ022-034>040-054-083-096-NEZ052-066-093-260100-
...KANSAS...SOUTHEAST NEBRASKA AND IOWA...

CITY           SKY/WX    TMP DP  RH WIND       PRES   REMARKS
TOPEKA         SUNNY     81  68  64 SE14      29.82F
6HR MIN TEMP:  72; 6HR MAX TEMP:  83;

MANHATTAN      CLOUDY    79  69  71 SE7       29.80S
EMPORIA        MOSUNNY   80  72  76 SE12      29.81F
CHANUTE        MOSUNNY   81  72  74 S13       29.85F
WICHITA        MOSUNNY   87  72  60 S15       29.78F HX  93
OMAHA          PTSUNNY   78  66  66 S5        29.82S
LINCOLN        MOSUNNY   77  68  73 S5        29.83S
FALLS CITY     PTSUNNY   78  68  71 S5        29.83S
LAMONI         CLOUDY    76  65  68 SW7       29.87S
DES MOINES     MOSUNNY   79  62  56 CALM      29.85S

$$





USA.gov is the U.S. government's official web portal to all federal, state and local government web resources and services.